DAL510 KMKE-KMSP

Flight info

Callsign DAL510
Flight time 0h 53m
Altitude 30000
Route HAWKN ROBBY KBULL KKILR4
Aircraft A321/M-SDE3FGHIRWY/LB1

Departure

Time 2026-05-05 01:51
Airport General Mitchell International Airport (KMKE)

Arrival

Time 2026-05-05 02:44
Airport Minneapolis–Saint Paul International Airport / Wold–Chamberlain Field (KMSP)
Time Latitude Longitude Altitude Speed Heading
2026-05-05 01:09 42.94908 -87.89848 685 ft 0 kts 207°
2026-05-05 01:38 42.94915 -87.89843 688 ft 2 kts 207°
2026-05-05 01:39 42.94929 -87.89833 680 ft 2 kts 207°
2026-05-05 01:39 42.94944 -87.89823 682 ft 2 kts 207°
2026-05-05 01:39 42.94958 -87.89813 684 ft 2 kts 207°
2026-05-05 01:39 42.94973 -87.89803 680 ft 2 kts 200°
2026-05-05 01:40 42.94988 -87.89797 680 ft 2 kts 187°
2026-05-05 01:40 42.95004 -87.89796 684 ft 2 kts 171°
2026-05-05 01:40 42.95013 -87.89798 683 ft 0 kts 160°
2026-05-05 01:43 42.95010 -87.89797 683 ft 2 kts 160°
2026-05-05 01:44 42.94977 -87.89762 683 ft 7 kts 117°
2026-05-05 01:44 42.94973 -87.89701 688 ft 6 kts 92°
2026-05-05 01:44 42.94971 -87.89647 688 ft 7 kts 97°
2026-05-05 01:44 42.94907 -87.89601 683 ft 15 kts 184°
2026-05-05 01:45 42.94812 -87.89616 685 ft 13 kts 188°
2026-05-05 01:45 42.94729 -87.89630 685 ft 11 kts 186°
2026-05-05 01:45 42.94655 -87.89642 685 ft 11 kts 187°
2026-05-05 01:45 42.94565 -87.89658 684 ft 13 kts 187°
2026-05-05 01:46 42.94462 -87.89675 681 ft 20 kts 187°
2026-05-05 01:46 42.94299 -87.89704 684 ft 23 kts 187°
2026-05-05 01:46 42.94158 -87.89757 685 ft 20 kts 221°
2026-05-05 01:46 42.94057 -87.89875 686 ft 18 kts 199°
2026-05-05 01:47 42.93937 -87.89888 684 ft 16 kts 180°
2026-05-05 01:47 42.93828 -87.89888 685 ft 15 kts 180°
2026-05-05 01:47 42.93731 -87.89890 684 ft 13 kts 181°
2026-05-05 01:47 42.93647 -87.89892 685 ft 12 kts 181°
2026-05-05 01:48 42.93567 -87.89893 684 ft 12 kts 181°
2026-05-05 01:48 42.93450 -87.89899 685 ft 20 kts 183°
2026-05-05 01:48 42.93318 -87.89910 684 ft 18 kts 187°
2026-05-05 01:48 42.93198 -87.89931 688 ft 17 kts 188°
2026-05-05 01:49 42.93117 -87.89947 688 ft 8 kts 186°
2026-05-05 01:49 42.93080 -87.89916 687 ft 6 kts 118°
2026-05-05 01:49 42.93078 -87.89905 682 ft 1 kts 108°
2026-05-05 01:49 42.93070 -87.89848 688 ft 11 kts 97°
2026-05-05 01:50 42.93085 -87.89764 683 ft 9 kts 27°
2026-05-05 01:50 42.93145 -87.89751 686 ft 11 kts
2026-05-05 01:50 42.93388 -87.89711 684 ft 69 kts
2026-05-05 01:50 42.94075 -87.89597 689 ft 127 kts
2026-05-05 01:51 42.95089 -87.89434 836 ft 156 kts
2026-05-05 01:51 42.96115 -87.89179 1553 ft 148 kts
2026-05-05 01:51 42.97142 -87.88874 2124 ft 150 kts
2026-05-05 01:51 42.98168 -87.88581 2602 ft 156 kts
2026-05-05 01:52 42.99287 -87.88270 2859 ft 173 kts
2026-05-05 01:52 43.00537 -87.87914 3027 ft 192 kts
2026-05-05 01:52 43.01891 -87.87512 3142 ft 211 kts
2026-05-05 01:52 43.03395 -87.87495 3276 ft 222 kts 339°
2026-05-05 01:53 43.04726 -87.88619 3556 ft 237 kts 311°
2026-05-05 01:53 43.05841 -87.90346 4256 ft 246 kts 309°
2026-05-05 01:53 43.06998 -87.92114 4949 ft 253 kts 308°
2026-05-05 01:53 43.08190 -87.93923 5703 ft 257 kts 307°
2026-05-05 01:54 43.09385 -87.95737 6443 ft 260 kts 307°
2026-05-05 01:54 43.10601 -87.97584 7232 ft 262 kts 306°
2026-05-05 01:54 43.11822 -87.99438 8012 ft 262 kts 306°
2026-05-05 01:54 43.13048 -88.01300 8809 ft 263 kts 305°
2026-05-05 01:55 43.14273 -88.03166 9586 ft 264 kts 304°
2026-05-05 01:55 43.15504 -88.05049 10276 ft 268 kts 304°
2026-05-05 01:55 43.16776 -88.07012 10459 ft 290 kts 304°
2026-05-05 01:55 43.18166 -88.09172 10585 ft 312 kts 305°
2026-05-05 01:56 43.19647 -88.11459 10984 ft 324 kts 305°
2026-05-05 01:56 43.21141 -88.13744 11558 ft 328 kts 305°
2026-05-05 01:56 43.22678 -88.16085 12294 ft 330 kts 305°
2026-05-05 01:56 43.24220 -88.18437 13010 ft 332 kts 305°
2026-05-05 01:57 43.25775 -88.20817 13653 ft 335 kts 305°
2026-05-05 01:57 43.27315 -88.23179 14257 ft 337 kts 305°
2026-05-05 01:57 43.28885 -88.25593 14853 ft 340 kts 305°
2026-05-05 01:57 43.30386 -88.28113 15436 ft 337 kts 298°
2026-05-05 01:58 43.31655 -88.30798 16006 ft 339 kts 297°
2026-05-05 01:58 43.32941 -88.33530 16589 ft 342 kts 297°
2026-05-05 01:58 43.34245 -88.36294 17178 ft 345 kts 297°
2026-05-05 01:58 43.35553 -88.39072 17741 ft 347 kts 297°
2026-05-05 01:59 43.36872 -88.41874 18241 ft 350 kts 297°
2026-05-05 01:59 43.38200 -88.44691 18715 ft 352 kts 297°
2026-05-05 01:59 43.39522 -88.47499 19204 ft 354 kts 297°
2026-05-05 01:59 43.40867 -88.50361 19688 ft 356 kts 297°
2026-05-05 02:00 43.42214 -88.53233 20204 ft 358 kts 297°
2026-05-05 02:00 43.43565 -88.56116 20696 ft 359 kts 297°
2026-05-05 02:00 43.44925 -88.59019 21178 ft 361 kts 297°
2026-05-05 02:00 43.46292 -88.61941 21657 ft 363 kts 297°
2026-05-05 02:01 43.47667 -88.64880 22117 ft 365 kts 297°
2026-05-05 02:01 43.49030 -88.67798 22567 ft 368 kts 297°
2026-05-05 02:01 43.50420 -88.70784 23013 ft 370 kts 297°
2026-05-05 02:01 43.51816 -88.73785 23397 ft 372 kts 297°
2026-05-05 02:02 43.53216 -88.76795 23772 ft 374 kts 297°
2026-05-05 02:02 43.54628 -88.79828 24141 ft 376 kts 297°
2026-05-05 02:02 43.56024 -88.82829 24498 ft 378 kts 297°
2026-05-05 02:02 43.57446 -88.85897 24870 ft 379 kts 297°
2026-05-05 02:03 43.58874 -88.88979 25253 ft 381 kts 297°
2026-05-05 02:03 43.60309 -88.92077 25621 ft 382 kts 297°
2026-05-05 02:03 43.61726 -88.95139 25969 ft 384 kts 297°
2026-05-05 02:03 43.63172 -88.98268 26353 ft 386 kts 296°
2026-05-05 02:04 43.64621 -89.01408 26712 ft 387 kts 296°
2026-05-05 02:04 43.66070 -89.04555 27059 ft 389 kts 296°
2026-05-05 02:04 43.67529 -89.07724 27392 ft 390 kts 296°
2026-05-05 02:04 43.68976 -89.10871 27710 ft 392 kts 296°
2026-05-05 02:05 43.70443 -89.14063 28025 ft 394 kts 296°
2026-05-05 02:05 43.71918 -89.17271 28335 ft 396 kts 296°
2026-05-05 02:05 43.73400 -89.20497 28650 ft 398 kts 296°
2026-05-05 02:05 43.74885 -89.23741 28985 ft 399 kts 296°
2026-05-05 02:06 43.76353 -89.26952 29386 ft 398 kts 297°
2026-05-05 02:06 43.77834 -89.30187 29578 ft 395 kts 297°
2026-05-05 02:06 43.79280 -89.33335 29602 ft 382 kts 296°
2026-05-05 02:06 43.80701 -89.36439 29601 ft 377 kts 296°
2026-05-05 02:07 43.83493 -89.42573 29639 ft 375 kts 296°
2026-05-05 02:07 43.86242 -89.48629 29615 ft 373 kts 296°
2026-05-05 02:08 43.88993 -89.54711 29617 ft 372 kts 296°
2026-05-05 02:08 43.91753 -89.60808 29609 ft 372 kts 296°
2026-05-05 02:09 43.94486 -89.66848 29606 ft 372 kts 296°
2026-05-05 02:09 43.97231 -89.72938 29605 ft 371 kts 296°
2026-05-05 02:10 43.99965 -89.79025 29603 ft 371 kts 296°
2026-05-05 02:10 44.02703 -89.85119 29603 ft 371 kts 296°
2026-05-05 02:11 44.05412 -89.91176 29646 ft 370 kts 295°
2026-05-05 02:11 44.08248 -89.97186 29642 ft 375 kts 302°
2026-05-05 02:12 44.13180 -90.05581 29642 ft 374 kts 302°
2026-05-05 02:13 44.16466 -90.11202 29638 ft 373 kts 301°
2026-05-05 02:13 44.19736 -90.16825 29631 ft 374 kts 302°
2026-05-05 02:14 44.23025 -90.22449 29679 ft 373 kts 301°
2026-05-05 02:14 44.25758 -90.27136 29635 ft 372 kts 301°
2026-05-05 02:15 44.28998 -90.32723 29650 ft 371 kts 301°
2026-05-05 02:15 44.32245 -90.38342 29665 ft 371 kts 301°
2026-05-05 02:16 44.35184 -90.44171 29651 ft 360 kts 290°
2026-05-05 02:16 44.37107 -90.50561 29662 ft 358 kts 287°
2026-05-05 02:17 44.39008 -90.57003 29665 ft 358 kts 287°
2026-05-05 02:17 44.40910 -90.63452 29674 ft 358 kts 287°
2026-05-05 02:18 44.42800 -90.69851 29695 ft 356 kts 287°
2026-05-05 02:18 44.44698 -90.76252 29685 ft 355 kts 287°
2026-05-05 02:19 44.46573 -90.82590 29696 ft 354 kts 287°
2026-05-05 02:19 44.48448 -90.88969 29691 ft 353 kts 287°
2026-05-05 02:20 44.50307 -90.95314 29701 ft 353 kts 287°
2026-05-05 02:20 44.52172 -91.01695 29690 ft 353 kts 287°
2026-05-05 02:20 44.53097 -91.04861 29425 ft 353 kts 287°
2026-05-05 02:21 44.54026 -91.08049 29143 ft 352 kts 287°
2026-05-05 02:21 44.54952 -91.11230 28866 ft 351 kts 287°
2026-05-05 02:21 44.55874 -91.14400 28592 ft 349 kts 287°
2026-05-05 02:21 44.56789 -91.17547 28321 ft 347 kts 287°
2026-05-05 02:22 44.57687 -91.20626 28053 ft 345 kts 287°
2026-05-05 02:22 44.58592 -91.23728 27781 ft 340 kts 287°
2026-05-05 02:22 44.59476 -91.26767 27376 ft 333 kts 287°
2026-05-05 02:22 44.60341 -91.29756 26959 ft 326 kts 286°
2026-05-05 02:23 44.61186 -91.32692 26576 ft 321 kts 286°
2026-05-05 02:23 44.62008 -91.35550 26130 ft 316 kts 286°
2026-05-05 02:23 44.62831 -91.38403 25640 ft 313 kts 286°
2026-05-05 02:23 44.63646 -91.41226 25140 ft 310 kts 286°
2026-05-05 02:24 44.64444 -91.43995 24681 ft 307 kts 286°
2026-05-05 02:24 44.65241 -91.46760 24216 ft 304 kts 286°
2026-05-05 02:24 44.66033 -91.49509 23765 ft 301 kts 286°
2026-05-05 02:24 44.66803 -91.52187 23330 ft 298 kts 286°
2026-05-05 02:25 44.67575 -91.54873 22861 ft 294 kts 286°
2026-05-05 02:25 44.68333 -91.57520 22436 ft 289 kts 286°
2026-05-05 02:25 44.69097 -91.60201 22023 ft 299 kts 286°
2026-05-05 02:25 44.69874 -91.62937 21606 ft 302 kts 286°
2026-05-05 02:26 44.70656 -91.65679 21188 ft 302 kts 286°
2026-05-05 02:26 44.71432 -91.68379 20780 ft 300 kts 287°
2026-05-05 02:26 44.72215 -91.71107 20380 ft 299 kts 286°
2026-05-05 02:26 44.72987 -91.73814 19959 ft 297 kts 286°
2026-05-05 02:27 44.73751 -91.76504 19532 ft 295 kts 286°
2026-05-05 02:27 44.74505 -91.79159 19119 ft 294 kts 286°
2026-05-05 02:27 44.75266 -91.81833 18684 ft 292 kts 287°
2026-05-05 02:27 44.76014 -91.84465 18266 ft 291 kts 287°
2026-05-05 02:28 44.76766 -91.87114 17981 ft 290 kts 287°
2026-05-05 02:28 44.77508 -91.89759 17525 ft 289 kts 286°
2026-05-05 02:28 44.78225 -91.92373 17096 ft 289 kts 286°
2026-05-05 02:28 44.78942 -91.95020 16661 ft 288 kts 287°
2026-05-05 02:29 44.79658 -91.97668 16230 ft 289 kts 287°
2026-05-05 02:29 44.80368 -92.00290 15821 ft 289 kts 287°
2026-05-05 02:29 44.81082 -92.02937 15399 ft 289 kts 287°
2026-05-05 02:29 44.81793 -92.05579 14977 ft 289 kts 287°
2026-05-05 02:30 44.82508 -92.08236 14543 ft 289 kts 287°
2026-05-05 02:30 44.83221 -92.10891 14122 ft 289 kts 287°
2026-05-05 02:30 44.83937 -92.13544 13695 ft 289 kts 288°
2026-05-05 02:30 44.84645 -92.16168 13245 ft 290 kts 288°
2026-05-05 02:31 44.85258 -92.18862 12789 ft 287 kts 279°
2026-05-05 02:31 44.85472 -92.21651 12360 ft 286 kts 274°
2026-05-05 02:31 44.85634 -92.24440 11943 ft 285 kts 275°
2026-05-05 02:31 44.85804 -92.27223 11504 ft 284 kts 275°
2026-05-05 02:32 44.85976 -92.29974 11078 ft 284 kts 276°
2026-05-05 02:32 44.86148 -92.32743 10636 ft 283 kts 276°
2026-05-05 02:32 44.86302 -92.35510 10312 ft 279 kts 275°
2026-05-05 02:32 44.86430 -92.38182 10184 ft 267 kts 275°
2026-05-05 02:33 44.86546 -92.40746 10045 ft 256 kts 275°
2026-05-05 02:33 44.86659 -92.43193 9833 ft 249 kts 276°
2026-05-05 02:33 44.86776 -92.45637 9714 ft 249 kts 276°
2026-05-05 02:33 44.86775 -92.48084 9520 ft 251 kts 265°
2026-05-05 02:34 44.86285 -92.50460 9180 ft 256 kts 250°
2026-05-05 02:34 44.85467 -92.52697 8815 ft 257 kts 248°
2026-05-05 02:34 44.84648 -92.54916 8444 ft 257 kts 248°
2026-05-05 02:34 44.83824 -92.57149 8080 ft 257 kts 248°
2026-05-05 02:35 44.83004 -92.59377 7718 ft 256 kts 248°
2026-05-05 02:35 44.82185 -92.61611 7355 ft 256 kts 248°
2026-05-05 02:35 44.81376 -92.63808 6996 ft 255 kts 248°
2026-05-05 02:35 44.80556 -92.66020 6645 ft 255 kts 248°
2026-05-05 02:36 44.79732 -92.68244 6320 ft 255 kts 249°
2026-05-05 02:36 44.79209 -92.70553 6009 ft 242 kts 266°
2026-05-05 02:36 44.79050 -92.72892 5689 ft 236 kts 272°
2026-05-05 02:36 44.79010 -92.75121 5601 ft 224 kts 273°
2026-05-05 02:37 44.78990 -92.77272 5547 ft 216 kts 274°
2026-05-05 02:37 44.78979 -92.79386 5495 ft 215 kts 274°
2026-05-05 02:37 44.78970 -92.81489 5466 ft 214 kts 274°
2026-05-05 02:37 44.78958 -92.83574 5418 ft 214 kts 274°
2026-05-05 02:38 44.78942 -92.85672 5368 ft 214 kts 274°
2026-05-05 02:38 44.78926 -92.87778 5319 ft 214 kts 274°
2026-05-05 02:38 44.78907 -92.89880 5266 ft 214 kts 273°
2026-05-05 02:38 44.78886 -92.91986 5093 ft 214 kts 274°
2026-05-05 02:39 44.78867 -92.94051 4849 ft 213 kts 273°
2026-05-05 02:39 44.78846 -92.96124 4588 ft 206 kts 273°
2026-05-05 02:39 44.78825 -92.98092 4321 ft 198 kts 273°
2026-05-05 02:39 44.78870 -92.99957 4108 ft 180 kts 283°
2026-05-05 02:40 44.79267 -93.01533 3922 ft 163 kts 301°
2026-05-05 02:40 44.79845 -93.02860 3730 ft 156 kts 302°
2026-05-05 02:40 44.80400 -93.04133 3522 ft 148 kts 302°
2026-05-05 02:40 44.80934 -93.05358 3315 ft 145 kts 302°
2026-05-05 02:41 44.81458 -93.06560 3122 ft 144 kts 303°
2026-05-05 02:41 44.81983 -93.07765 2920 ft 143 kts 303°
2026-05-05 02:41 44.82503 -93.08958 2731 ft 142 kts 303°
2026-05-05 02:41 44.83012 -93.10128 2547 ft 141 kts 303°
2026-05-05 02:42 44.83526 -93.11308 2352 ft 141 kts 303°
2026-05-05 02:42 44.84040 -93.12491 2159 ft 141 kts 303°
2026-05-05 02:42 44.84553 -93.13671 1935 ft 142 kts 302°
2026-05-05 02:42 44.85067 -93.14854 1741 ft 141 kts 303°
2026-05-05 02:43 44.85578 -93.16030 1536 ft 141 kts 303°
2026-05-05 02:43 44.86088 -93.17203 1351 ft 141 kts 303°
2026-05-05 02:43 44.86602 -93.18387 1155 ft 141 kts 302°
2026-05-05 02:43 44.87114 -93.19560 950 ft 139 kts 302°
2026-05-05 02:44 44.87619 -93.20690 828 ft 135 kts 303°
2026-05-05 02:44 44.88037 -93.21673 823 ft 83 kts 296°
2026-05-05 02:44 44.88195 -93.22055 826 ft 22 kts 303°
2026-05-05 02:44 44.88265 -93.22224 823 ft 16 kts 300°
2026-05-05 02:45 44.88331 -93.22272 824 ft 11 kts 23°
2026-05-05 02:45 44.88368 -93.22183 825 ft 10 kts 95°
2026-05-05 02:45 44.88337 -93.22099 825 ft 9 kts 121°
2026-05-05 02:45 44.88306 -93.22026 822 ft 8 kts 122°
2026-05-05 02:46 44.88298 -93.21959 825 ft 6 kts 72°
2026-05-05 02:46 44.88343 -93.21892 826 ft 15 kts 41°
2026-05-05 02:46 44.88421 -93.21791 825 ft 15 kts 43°
2026-05-05 02:46 44.88491 -93.21692 826 ft 14 kts 46°
2026-05-05 02:47 44.88520 -93.21581 825 ft 12 kts 108°
2026-05-05 02:47 44.88468 -93.21504 825 ft 10 kts 136°
2026-05-05 02:47 44.88440 -93.21489 825 ft 3 kts 196°
2026-05-05 02:47 44.88424 -93.21498 825 ft 2 kts 201°
2026-05-05 02:48 44.88412 -93.21504 823 ft 3 kts 201°
2026-05-05 02:48 44.88406 -93.21508 825 ft 0 kts 201°